sat.trackr.live / text

‹ back to catalog

STARLINK-11300 [DTC]

NORAD 61243 · 2024-175A

PAYLOAD ACTIVE UNKNOWN

§ Identity

Operator
Country
US
Launch date
2024-09-25
Launch site
AFWTR
Launch vehicle
Mass (kg)
RCS (m²)

Purposes: comms

External: N2YO · Heavens-Above · Gunter

§ Orbital elements

Epoch: 2026-09-21T21:39:45.958464Z

Period
91.74 min
Inclination
53.1593°
Eccentricity
0.0001430
Mean motion
15.69698079 rev/d
Perigee alt
358.8 km
Apogee alt
360.7 km
Semi-major
6,737.9 km
B*
-4.3008e-6
RAAN
169.0305°
Arg perigee
85.8510°
Mean anomaly
274.2672°
Rev number
11,418

§ Raw data

STARLINK-11300 [DTC]1 61243U 24175A   26264.90261526 -.00001110  00000+0 -43008-5 0  99902 61243  53.1593 169.0305 0001430  85.8510 274.2672 15.69698079114188

JSON: /api/v1/satellites/61243 · /tle

For live sub-satellite position, see the globe view (requires WebGL).

§ Visibility from observer

Set your observer location to see the next 7 days of passes ≥ 10°. The values pass through the URL so the page stays shareable.

No JS? Fill the form by hand. The geolocation button needs JavaScript.